When you browse on this site, cookies collect data to enhance your experience and personalize the content and advertising you see.
Visit our Privacy Policy to learn more. By continuing to use the site, you agree to this use of cookies and data.

Stündliche Wetter Bolshie Noli

Heute, 29 September, Dienstag

Zeit Temperatur Niederschläge Wind Luftdruck Luftfeuchtigkeit
00:00 +10°C° 0 mm 1 m/S 765 mmHg 74%
01:00 +9°C° 0 mm 1 m/S 765 mmHg 74%
02:00 +9°C° 0 mm 1 m/S 765 mmHg 75%
03:00 +9°C° 0 mm 1 m/S 765 mmHg 75%
04:00 +9°C° 0 mm 1 m/S 765 mmHg 75%
05:00 +8°C° 0 mm 1 m/S 765 mmHg 75%
06:00 +8°C° 0 mm 1 m/S 765 mmHg 75%
07:00 +10°C° 0 mm 1 m/S 765 mmHg 70%
08:00 +12°C° 0 mm 1 m/S 765 mmHg 64%
09:00 +14°C° 0 mm 1 m/S 765 mmHg 59%
10:00 +15°C° 0 mm 1 m/S 765 mmHg 54%
11:00 +16°C° 0 mm 1 m/S 765 mmHg 50%
12:00 +17°C° 0 mm 2 m/S 764 mmHg 46%
13:00 +18°C° 0 mm 1 m/S 764 mmHg 48%
14:00 +18°C° 0 mm 1 m/S 764 mmHg 50%
15:00 +18°C° 0 mm 1 m/S 764 mmHg 52%
16:00 +16°C° 0 mm 1 m/S 764 mmHg 57%
17:00 +14°C° 0 mm 1 m/S 764 mmHg 62%
18:00 +12°C° 0 mm 1 m/S 764 mmHg 66%
19:00 +12°C° 0 mm 1 m/S 764 mmHg 67%
20:00 +12°C° 0 mm 1 m/S 764 mmHg 69%
21:00 +11°C° 0 mm 1 m/S 764 mmHg 70%
22:00 +11°C° 0 mm 1 m/S 763 mmHg 71%
23:00 +11°C° 0 mm 1 m/S 763 mmHg 72%

Morgen, 30 September, Mittwoch

Zeit Temperatur Niederschläge Wind Luftdruck Luftfeuchtigkeit
00:00 +10°C° 0 mm 1 m/S 763 mmHg 73%
01:00 +10°C° 0 mm 1 m/S 763 mmHg 74%
02:00 +10°C° 0 mm 1 m/S 764 mmHg 75%
03:00 +10°C° 0 mm 1 m/S 764 mmHg 76%
04:00 +9°C° 0 mm 1 m/S 764 mmHg 77%
05:00 +9°C° 0 mm 1 m/S 763 mmHg 78%
06:00 +9°C° 0 mm 1 m/S 763 mmHg 79%
07:00 +10°C° 0 mm 1 m/S 763 mmHg 74%
08:00 +12°C° 0 mm 2 m/S 763 mmHg 70%
09:00 +13°C° 0 mm 2 m/S 764 mmHg 65%
10:00 +15°C° 0 mm 2 m/S 763 mmHg 63%
11:00 +16°C° 0 mm 2 m/S 763 mmHg 60%
12:00 +17°C° 0 mm 2 m/S 763 mmHg 58%
13:00 +17°C° 0 mm 2 m/S 763 mmHg 60%
14:00 +17°C° 0 mm 2 m/S 763 mmHg 62%
15:00 +17°C° 0 mm 2 m/S 763 mmHg 63%
16:00 +16°C° 0 mm 2 m/S 763 mmHg 70%
17:00 +14°C° 0 mm 2 m/S 763 mmHg 77%
18:00 +13°C° 0 mm 2 m/S 762 mmHg 84%
19:00 +12°C° 0 mm 2 m/S 763 mmHg 86%
20:00 +12°C° 0 mm 2 m/S 763 mmHg 88%
21:00 +10°C° 0 mm 2 m/S 763 mmHg 89%
22:00 +10°C° 0 mm 2 m/S 763 mmHg 89%
23:00 +10°C° 0 mm 2 m/S 763 mmHg 90%

übermorgen, 1 Oktober, Donnerstag

Zeit Temperatur Niederschläge Wind Luftdruck Luftfeuchtigkeit
00:00 +9°C° 0 mm 2 m/S 763 mmHg 90%
01:00 +10°C° 0 mm 1 m/S 763 mmHg 90%
02:00 +10°C° 0 mm 1 m/S 763 mmHg 90%
03:00 +10°C° 0 mm 1 m/S 763 mmHg 90%
04:00 +10°C° 0 mm 1 m/S 763 mmHg 90%
05:00 +10°C° 0 mm 1 m/S 763 mmHg 90%
06:00 +9°C° 0 mm 1 m/S 763 mmHg 90%
07:00 +11°C° 0 mm 1 m/S 763 mmHg 84%
08:00 +12°C° 0 mm 1 m/S 763 mmHg 78%
09:00 +14°C° 0 mm 1 m/S 763 mmHg 72%
10:00 +15°C° 0 mm 2 m/S 763 mmHg 67%
11:00 +16°C° 0 mm 2 m/S 763 mmHg 62%
12:00 +17°C° 0 mm 2 m/S 763 mmHg 58%
13:00 +17°C° 0 mm 2 m/S 762 mmHg 58%
14:00 +17°C° 0 mm 2 m/S 762 mmHg 59%
15:00 +19°C° 0 mm 1 m/S 762 mmHg 59%
16:00 +16°C° 0 mm 1 m/S 762 mmHg 65%
17:00 +14°C° 0 mm 1 m/S 762 mmHg 70%
18:00 +13°C° 0 mm 1 m/S 762 mmHg 76%
19:00 +12°C° 0 mm 1 m/S 762 mmHg 78%
20:00 +12°C° 0 mm 1 m/S 762 mmHg 80%
21:00 +11°C° 0 mm 1 m/S 762 mmHg 81%
22:00 +11°C° 0 mm 1 m/S 762 mmHg 82%
23:00 +11°C° 0 mm 1 m/S 762 mmHg 82%

2 Oktober, Freitag

Zeit Temperatur Niederschläge Wind Luftdruck Luftfeuchtigkeit
00:00 +10°C° 0 mm 1 m/S 762 mmHg 83%
01:00 +10°C° 0 mm 1 m/S 762 mmHg 82%
02:00 +10°C° 0 mm 1 m/S 762 mmHg 82%
03:00 +10°C° 0 mm 1 m/S 762 mmHg 81%
04:00 +10°C° 0 mm 1 m/S 762 mmHg 82%
05:00 +9°C° 0 mm 1 m/S 762 mmHg 83%
06:00 +9°C° 0 mm 1 m/S 762 mmHg 84%
07:00 +10°C° 0 mm 1 m/S 762 mmHg 79%
08:00 +12°C° 0 mm 1 m/S 762 mmHg 73%
09:00 +14°C° 0 mm 1 m/S 762 mmHg 67%
10:00 +15°C° 0 mm 1 m/S 762 mmHg 64%
11:00 +16°C° 0 mm 1 m/S 762 mmHg 60%
12:00 +18°C° 0 mm 1 m/S 762 mmHg 56%
13:00 +18°C° 0 mm 1 m/S 762 mmHg 56%
14:00 +18°C° 0 mm 1 m/S 762 mmHg 57%
15:00 +18°C° 0 mm 1 m/S 762 mmHg 57%
16:00 +16°C° 0 mm 1 m/S 761 mmHg 63%
17:00 +14°C° 0 mm 1 m/S 761 mmHg 69%
18:00 +13°C° 0 mm 1 m/S 761 mmHg 75%
19:00 +12°C° 0 mm 1 m/S 761 mmHg 77%
20:00 +12°C° 0 mm 1 m/S 761 mmHg 79%
21:00 +11°C° 0 mm 1 m/S 761 mmHg 81%
22:00 +11°C° 0 mm 1 m/S 761 mmHg 82%
23:00 +11°C° 0 mm 1 m/S 761 mmHg 83%

3 Oktober, Samstag

Zeit Temperatur Niederschläge Wind Luftdruck Luftfeuchtigkeit
00:00 +10°C° 0 mm 1 m/S 761 mmHg 85%
01:00 +10°C° 0 mm 1 m/S 761 mmHg 86%
02:00 +10°C° 0 mm 1 m/S 761 mmHg 87%
03:00 +10°C° 0 mm 1 m/S 761 mmHg 89%
04:00 +9°C° 0 mm 1 m/S 761 mmHg 89%
05:00 +9°C° 0 mm 1 m/S 761 mmHg 90%
06:00 +9°C° 0 mm 1 m/S 761 mmHg 91%
07:00 +9°C° 0 mm 2 m/S 761 mmHg 86%
08:00 +12°C° 0 mm 2 m/S 761 mmHg 81%
09:00 +13°C° 0 mm 2 m/S 761 mmHg 76%
10:00 +14°C° 0 mm 2 m/S 761 mmHg 71%
11:00 +15°C° 0 mm 2 m/S 761 mmHg 67%
12:00 +16°C° 0 mm 2 m/S 761 mmHg 62%
13:00 +16°C° 0 mm 2 m/S 761 mmHg 62%
14:00 +16°C° 0 mm 2 m/S 760 mmHg 62%
15:00 +16°C° 0 mm 2 m/S 760 mmHg 63%
16:00 +15°C° 0 mm 2 m/S 760 mmHg 69%
17:00 +13°C° 0 mm 2 m/S 760 mmHg 75%
18:00 +12°C° 0 mm 2 m/S 760 mmHg 81%
19:00 +12°C° 0 mm 2 m/S 761 mmHg 82%
20:00 +10°C° 0 mm 2 m/S 761 mmHg 82%
21:00 +9°C° 0 mm 2 m/S 761 mmHg 82%
22:00 +9°C° 0 mm 2 m/S 761 mmHg 85%
23:00 +9°C° 0 mm 2 m/S 761 mmHg 88%

4 Oktober, Sonntag

Zeit Temperatur Niederschläge Wind Luftdruck Luftfeuchtigkeit
00:00 +8°C° 0 mm 2 m/S 761 mmHg 91%
01:00 +8°C° 0 mm 2 m/S 761 mmHg 91%
02:00 +8°C° 0 mm 2 m/S 762 mmHg 92%
03:00 +8°C° 0 mm 2 m/S 762 mmHg 93%
04:00 +8°C° 0 mm 3 m/S 762 mmHg 92%
05:00 +8°C° 0 mm 3 m/S 762 mmHg 91%
06:00 +8°C° 0 mm 3 m/S 762 mmHg 89%
07:00 +9°C° 0 mm 3 m/S 762 mmHg 85%
08:00 +9°C° 0 mm 3 m/S 762 mmHg 81%
09:00 +10°C° 0 mm 3 m/S 762 mmHg 77%
10:00 +10°C° 0 mm 3 m/S 762 mmHg 71%
11:00 +11°C° 0 mm 3 m/S 762 mmHg 66%
12:00 +12°C° 0 mm 3 m/S 762 mmHg 60%
13:00 +12°C° 0 mm 3 m/S 762 mmHg 59%
14:00 +11°C° 0 mm 3 m/S 762 mmHg 58%
15:00 +11°C° 0 mm 3 m/S 762 mmHg 57%
16:00 +10°C° 0 mm 3 m/S 762 mmHg 62%
17:00 +8°C° 0 mm 3 m/S 762 mmHg 67%
18:00 +7°C° 0 mm 3 m/S 763 mmHg 72%
19:00 +5°C° 0 mm 3 m/S 763 mmHg 73%
20:00 +4°C° 0 mm 3 m/S 763 mmHg 74%
21:00 +3°C° 0 mm 3 m/S 763 mmHg 74%
22:00 +2°C° 0 mm 3 m/S 763 mmHg 78%
23:00 +3°C° 0 mm 2 m/S 763 mmHg 82%
Mehr zeigen